DELTA 1 DEB, 8319

Orbit data source: Space-Track

DELTA 1 DEB, 8319 is space debris in SSO originally from a launch on Sun, 23 Jul 1972 UTC launched from the Air Force Western Test Range (AFWTR). Debris objects in space refer to the collection of defunct objects orbiting the Earth. Examples of debris include non-operational satellites, rocket bodies, and fragments generated from explosions, collisions, or faulty payload assembly.

Loading next visibility...
Identifier
8319, 1972-058EM
Orbit
SSO
Country
Flag of USUS
Related business
Manufacturer
Unknown
Mission
Spacecraft
Bus & Motor
Unknown
Mass
Unknown
Launch date (UTC)
1972-07-23 (53 years ago)
Launch vehicle
Unknown
Launch site
Air Force Western Test Range (AFWTR)
Object type
Payload
Rocket body
Debris
Shape & HBR
Unknown shape, 0.5 m
Radar Cross Section
Medium (>0.1 m² and <1 m²)

Expand to show TLE details & history
Last TLE update: 13 hours ago

TLE from 13 hours ago
0 DELTA 1 DEB
1 08319U 72058EM  25351.89080659  .00000563  00000-0  13068-3 0  9999
2 08319  98.6412  39.2486 0132237 272.8867  85.7201 14.54202894791316
Epoch: 2025-12-17T21:22Z
TLE epoch observation values (Epoch: 2025-12-17T21:22:45.689Z)
Latitude
-0.00007°
Longitude
-8.19593°
Altitude
709.155 km
Speed
7.504 km/s
True Right ascension
02h 36m 59s
True Declination
0° 00' 00"
Sunlit
Object was in full shadow at epoch
Visualization orbit readout
Latitude
Unknown
Longitude
Unknown
Altitude
Unknown
Speed
Unknown
Apparent Right ascension
Unknown
Apparent Declination
Unknown
Sunlit
N/A
Visualization observer readout
Local Sidereal Time
09:38:01
Azimuth
Unknown
Elevation
Unknown
Doppler factor
Unknown
Orbital elements
Apogee altitude
802.782 km
Perigee altitude
615.344 km
Semi-major axis
7,087.2 km
Eccentricity
0.01322
Inclination
98.6412°
RAAN
39.2486°
Arg. of periapsis
272.8867°
True anomaly
87.23289°
Mean anomaly
85.7201°
Eccentric anomaly
86.47633°
Mean motion
3.63774 °/min
Orbital period
98.96 mins
BSTAR
0.00013068
Loading maneuver chart data...
Computing Atmospheric mass density...
Loading historical data...
Loading historical data...
Loading historical data...
Loading historical data...
Loading historical data...
Loading historical data...
Loading historical data...

Documentation

Showing up to 5 results
|